Location: Barruelo
(41.2448°N, 3.8231°W)
Time: 21:52:15
(UTC+00:00)

COSMOS 2455 - Pass Details

Date: 11 December 2025
Orbit: 898 x 910 km, 67.1° (Epoch: 12 January)

Event Time Altitude Azimuth Distance (km) Brightness Sun altitude
Rises 19:04:40 0° 198° (SSW) 3,513 6.3 -25.2°
Reaches altitude 10° 19:07:11 10° 195° (SSW) 2,577 5.5 -25.6°
Enters shadow 19:12:49 64° 131° (SE) 997 2.8 -26.7°
